Date,Time,M04 Relative Humidity (AVG),M04 WIND SPEED (AVG),M04 Pyranometer 0 - 2000 W/m² (AVG),ΖΗΡΟΣ Rain Duration (SUM),Daily ETo (SUM),ΖΗΡΟΣ WIND DIRECTION (AVG),M04 Temperature (AVG),ΖΗΡΟΣ Precipitation (SUM),M04 Barometric Pressure (AVG)
30/08/2015,00:00:00,*,*,*,*,*,*,*,*,*
29/09/2015,00:00:00,65.4,3.0,283.4,19.3,10.14,311.7,23.9,1.1,945.8
29/10/2015,00:00:00,68.9,2.4,232.4,30.0,8.57,265.9,22.4,1.5,947.1
28/11/2015,00:00:00,78.8,2.6,175.5,133.3,7.92,276.3,17.7,4.6,948.4
28/12/2015,00:00:00,80.9,3.2,139.9,72.0,5.88,279.0,14.0,1.8,950.8
27/01/2016,00:00:00,80.4,3.4,120.1,92.9,6.00,320.3,10.3,3.3,955.8
26/02/2016,00:00:00,81.1,2.8,92.1,493.5,5.93,247.2,8.4,11.2,949.7
27/03/2016,00:00:00,75.7,2.9,188.3,1123.3,76.80,230.9,10.8,32.3,945.8
26/04/2016,00:00:00,75.9,2.9,193.7,187.4,13.01,232.5,10.7,5.4,945.0
26/05/2016,00:00:00,50.2,2.4,277.8,0.0,23.21,216.7,16.6,0.0,946.1
25/06/2016,00:00:00,63.1,2.1,251.8,116.1,24.81,244.6,17.3,2.1,946.0
25/07/2016,00:00:00,50.2,2.5,318.1,0.0,36.96,268.5,23.3,0.0,945.3
24/08/2016,00:00:00,59.8,3.8,329.7,0.0,44.64,338.6,23.2,0.0,943.6
23/09/2016,00:00:00,62.5,3.3,297.8,0.0,46.30,339.0,23.7,0.0,944.8
23/10/2016,00:00:00,67.4,2.8,241.5,72.0,33.22,283.3,20.6,3.0,947.6
22/11/2016,00:00:00,73.0,3.1,190.8,227.2,27.42,286.6,18.0,16.6,949.5
22/12/2016,00:00:00,82.1,3.0,125.2,333.0,15.54,242.2,13.3,12.0,951.1
21/01/2017,00:00:00,80.3,3.2,106.2,1742.1,12.76,224.8,7.3,50.1,951.5
20/02/2017,00:00:00,83.0,4.1,102.4,1319.9,13.21,198.4,6.6,31.9,948.5
22/03/2017,00:00:00,78.3,5.9,171.7,3067.7,64.88,170.5,9.9,85.1,947.1
21/04/2017,00:00:00,76.3,6.7,185.7,1235.1,23.92,159.3,10.5,35.6,945.1
21/05/2017,00:00:00,65.1,5.2,247.5,410.0,37.17,155.7,13.1,11.6,947.5
20/06/2017,00:00:00,61.8,3.8,266.6,308.7,54.45,206.0,17.8,12.6,945.9
20/07/2017,00:00:00,53.8,10.7,327.1,33.0,87.62,182.4,22.7,1.6,945.9
19/08/2017,00:00:00,56.0,13.5,324.2,0.0,105.15,98.9,24.2,0.0,943.2
18/09/2017,00:00:00,66.4,12.5,298.1,0.0,82.74,104.4,22.9,0.0,943.6
18/10/2017,00:00:00,55.6,8.0,253.3,13.0,85.80,204.7,21.9,0.2,947.2
17/11/2017,00:00:00,73.8,3.1,198.4,339.2,41.51,263.4,16.2,12.1,948.0
17/12/2017,00:00:00,82.4,2.2,122.5,392.0,22.61,161.9,12.4,12.0,948.8
16/01/2018,00:00:00,84.2,3.2,92.6,1088.7,18.25,148.9,10.5,27.4,950.0
15/02/2018,00:00:00,81.9,2.8,114.0,1207.7,21.87,183.2,8.5,28.6,948.2
17/03/2018,00:00:00,77.7,3.5,162.8,1294.0,65.34,149.5,11.3,39.8,944.1
16/04/2018,00:00:00,72.8,4.1,196.7,116.0,41.87,156.0,12.5,2.4,943.5
16/05/2018,00:00:00,55.0,5.1,276.0,30.0,74.37,191.7,16.4,0.3,946.1
15/06/2018,00:00:00,61.0,4.7,266.9,139.3,85.52,246.8,19.8,3.2,943.9
15/07/2018,00:00:00,63.3,5.2,296.1,320.0,95.24,229.6,21.8,44.4,943.2
14/08/2018,00:00:00,62.4,9.5,313.6,98.7,119.09,153.6,24.2,7.0,942.5
13/09/2018,00:00:00,71.3,9.4,302.6,0.0,97.18,157.3,23.1,0.0,943.5
13/10/2018,00:00:00,73.1,5.9,244.1,198.0,80.90,206.5,20.9,6.2,946.4
12/11/2018,00:00:00,78.6,3.2,192.5,239.2,54.58,269.2,16.8,6.4,948.7
12/12/2018,00:00:00,83.1,3.2,129.4,1519.9,34.48,256.1,14.1,54.3,948.1
11/01/2019,00:00:00,83.9,7.2,80.0,2612.8,22.61,164.7,9.3,68.0,947.2
10/02/2019,00:00:00,85.1,12.5,87.8,5101.5,24.29,118.4,7.6,179.2,942.0
12/03/2019,00:00:00,82.9,3.3,145.2,3792.8,51.53,133.9,9.2,145.1,946.3
11/04/2019,00:00:00,75.9,2.7,210.5,1895.3,51.87,178.7,10.9,117.2,946.6
11/05/2019,00:00:00,70.6,2.8,218.6,1080.0,62.55,193.6,12.7,82.4,945.8
10/06/2019,00:00:00,57.1,2.4,278.8,121.9,100.98,204.9,17.6,2.0,945.0
10/07/2019,00:00:00,65.9,2.8,327.0,0.0,118.03,261.6,21.9,0.0,944.5
09/08/2019,00:00:00,60.0,4.4,329.6,63.9,138.22,260.1,23.6,18.9,942.2
08/09/2019,00:00:00,63.5,6.9,310.3,0.0,139.03,246.9,23.7,0.0,943.0
08/10/2019,00:00:00,71.0,3.1,265.4,0.0,100.06,263.6,20.4,0.0,945.5
07/11/2019,00:00:00,76.0,3.3,194.6,116.2,74.09,197.1,18.8,5.7,947.4
07/12/2019,00:00:00,85.1,2.9,120.4,1320.0,42.00,113.1,15.7,73.3,946.8
06/01/2020,00:00:00,86.4,2.7,101.6,4088.6,30.46,164.5,10.5,132.1,945.5
05/02/2020,00:00:00,84.3,2.9,109.9,4403.1,32.91,248.5,7.9,137.4,949.1
06/03/2020,00:00:00,84.1,2.8,138.2,2295.0,47.98,218.3,9.0,72.5,946.9
05/04/2020,00:00:00,81.8,3.4,170.2,1308.0,53.38,174.7,10.3,53.2,944.4
05/05/2020,00:00:00,72.1,4.1,248.8,1482.0,89.85,163.1,12.6,46.5,944.3
04/06/2020,00:00:00,55.5,4.9,294.4,522.6,153.28,152.3,19.2,18.1,946.2
04/07/2020,00:00:00,63.6,6.0,317.6,270.0,151.30,128.7,20.4,9.0,942.8
03/08/2020,00:00:00,60.7,21.1,332.5,81.3,243.38,177.4,23.4,4.7,941.2
02/09/2020,00:00:00,60.3,18.4,307.7,0.0,240.42,182.2,24.0,0.0,941.3
02/10/2020,00:00:00,68.3,12.6,254.7,377.0,167.84,160.6,22.6,13.5,945.0
01/11/2020,00:00:00,71.8,3.8,172.7,1451.6,99.78,113.6,19.4,68.7,947.4
01/12/2020,00:00:00,84.5,2.5,125.1,2849.9,48.08,171.8,13.0,105.4,948.3
31/12/2020,00:00:00,*,*,*,*,*,*,*,*,*
30/01/2021,00:00:00,87.9,1.9,97.4,89.0,1.10,192.0,11.3,2.4,946.7
01/03/2021,00:00:00,84.2,1.7,159.9,2332.2,56.65,206.6,9.7,56.0,948.4
31/03/2021,00:00:00,*,*,*,*,*,*,*,*,*
30/04/2021,00:00:00,79.9,2.0,189.3,69.7,1.97,221.7,9.2,1.3,945.3
30/05/2021,00:00:00,60.8,1.9,248.3,17.0,3.80,185.8,13.9,0.5,946.4
29/06/2021,00:00:00,47.8,2.3,319.9,0.0,11.22,172.2,20.4,0.0,944.6
29/07/2021,00:00:00,60.0,*,333.9,10.0,5.39,*,21.7,0.1,945.1
28/08/2021,00:00:00,62.9,*,328.2,0.0,0.00,*,24.1,0.0,941.3
27/09/2021,00:00:00,55.0,*,305.8,0.0,0.00,*,25.4,0.0,942.6
27/10/2021,00:00:00,66.9,*,253.8,0.0,0.00,*,21.0,0.0,945.2
26/11/2021,00:00:00,80.4,*,185.7,112.1,0.00,*,16.1,4.1,947.7
26/12/2021,00:00:00,82.3,*,133.7,95.2,0.00,*,14.5,2.9,947.3
25/01/2022,00:00:00,85.5,*,97.3,702.5,0.00,*,9.6,22.4,944.5
24/02/2022,00:00:00,86.8,*,95.3,1619.1,0.00,*,7.1,43.9,944.7
26/03/2022,00:00:00,85.7,*,117.4,664.2,0.05,*,8.6,28.3,945.2
25/04/2022,00:00:00,77.3,*,165.1,964.1,0.00,*,6.5,24.6,947.6
25/05/2022,00:00:00,59.3,*,266.5,0.0,0.00,*,14.7,0.0,942.9
24/06/2022,00:00:00,56.0,*,303.1,27.1,0.00,*,18.3,0.3,945.3
24/07/2022,00:00:00,65.9,*,325.1,0.0,0.00,*,21.7,0.0,942.0
23/08/2022,00:00:00,61.9,*,334.1,7.7,0.00,*,22.7,0.1,941.1
22/09/2022,00:00:00,68.8,*,293.5,61.0,0.00,*,23.4,1.3,940.3
22/10/2022,00:00:00,69.4,*,256.7,54.0,0.00,*,21.3,0.5,943.9
21/11/2022,00:00:00,77.3,*,192.5,339.6,0.00,*,17.0,40.6,947.0
21/12/2022,00:00:00,83.0,*,141.9,270.0,0.00,*,13.8,11.4,946.0
20/01/2023,00:00:00,88.3,*,113.0,383.2,0.00,*,12.1,15.7,948.3
19/02/2023,00:00:00,88.8,*,119.6,708.3,0.00,*,9.8,21.3,947.0
21/03/2023,00:00:00,80.2,*,157.6,1082.4,0.00,*,7.6,40.7,948.9
20/04/2023,00:00:00,80.3,*,193.7,530.9,0.00,*,11.2,15.6,941.7
20/05/2023,00:00:00,79.0,*,240.6,198.0,0.00,*,12.4,3.9,941.8
19/06/2023,00:00:00,76.0,*,225.4,406.4,0.00,*,15.6,9.1,942.6
19/07/2023,00:00:00,69.5,*,320.1,192.0,0.00,*,20.7,10.3,941.8
18/08/2023,00:00:00,55.1,*,335.9,0.0,0.00,*,25.6,0.0,941.9
17/09/2023,00:00:00,66.9,*,307.6,0.0,0.00,*,24.3,0.0,941.5
17/10/2023,00:00:00,70.3,*,241.9,56.0,0.00,*,22.0,3.1,943.1
16/11/2023,00:00:00,77.2,*,199.7,0.0,0.00,*,18.7,0.0,946.5
16/12/2023,00:00:00,85.2,*,121.9,660.0,0.00,*,15.7,20.6,944.4
15/01/2024,00:00:00,90.2,*,109.1,867.1,0.00,*,12.3,25.1,946.3
14/02/2024,00:00:00,85.5,*,99.0,2352.5,0.00,*,9.7,50.7,945.6
15/03/2024,00:00:00,87.7,*,132.8,1324.6,0.00,*,10.2,43.3,946.6
